STARLINK-1623, 46129

Orbit data source: Space-Track

STARLINK-1623, 46129 is a payload satellite owned by SpaceX/Seattle (US) in LEO that was launched on Tue, 18 Aug 2020 UTC via an FALCON 9 launch vehicle from the Air Force Eastern Test Range (AFETR). Payload-class satellites include a variety of spacecraft equipped with specific instruments for various scientific and technological missions. These include communications satellites like Starlink; space stations such as the ISS; scientific satellites like the Hubble; Earth observation satellites from companies like Planet Labs, Umbra, and HawkEye 360; GPS; miniature CubeSats for education and research; and military/defense satellites.

Loading next visibility...
Identifier
46129, 2020-057N
Orbit
LEO
Country
Flag of USUS
Related business
Manufacturer
SpaceX/Seattle
Mission
Operational Commercial Communications
Bus & Motor
STARLINK, Unknown motor
Mass
260 kg wet, ~248 kg dry
Launch date (UTC)
2020-08-18 (5 years ago)
Launch vehicle
FALCON 9
Launch site
Air Force Eastern Test Range (AFETR)
Object type
Payload
Rocket body
Debris
Shape & HBR
Box + 1 Pan, 10.1 m
Radar Cross Section
13.562 m², Large (>1 m²)

Expand to show TLE details & history
Last TLE update: 16 hours ago

TLE from 16 hours ago
0 STARLINK-1623
1 46129U 20057N   25299.03455243  .00002082  00000-0  15863-3 0  9997
2 46129  53.0542 161.1104 0001207 104.5606 255.5517 15.06398025286330
Epoch: 2025-10-26T00:49Z
TLE epoch observation values (Epoch: 2025-10-26T00:49:45.329Z)
Latitude
-0.00004°
Longitude
114.01496°
Altitude
548.305 km
Speed
7.589 km/s
True Right ascension
10h 44m 26s
True Declination
0° 00' 00"
Sunlit
Object was in daylight at epoch
Visualization orbit readout
Latitude
Unknown
Longitude
Unknown
Altitude
Unknown
Speed
Unknown
Apparent Right ascension
Unknown
Apparent Declination
Unknown
Sunlit
N/A
Visualization observer readout
Local Sidereal Time
12:08:40
Azimuth
Unknown
Elevation
Unknown
Doppler factor
Unknown
Orbital elements
Apogee altitude
548.324 km
Perigee altitude
546.652 km
Semi-major axis
6,925.625 km
Eccentricity
0.00012
Inclination
53.0542°
RAAN
161.1104°
Arg. of periapsis
104.5606°
True anomaly
255.53831°
Mean anomaly
255.5517°
Eccentric anomaly
255.545°
Mean motion
3.76578 °/min
Orbital period
95.6 mins
BSTAR
0.00015863
Loading maneuver chart data...
Computing Atmospheric mass density...

Documentation

Showing up to 5 results
|